Flag Weather past 2 weeks in Wertheim, Baden-Württemberg, Germany

Now
39 °F

Passing clouds.


Feels Like: 39 °F
Forecast: 39 / 49 °F
Wind: 2 mph from Southeast

Location: Wuerzburg

Current Time: Nov 23, 2014 at 8:57:23 PM

Latest Report: Nov 23, 2014 at 8:00 PM


Visibility: 8 mi

Pressure: 30.18 "Hg

Humidity: 95%

Dew point: 38 °F

Location of WertheimLocation

Historic Weather in Wertheim — Graph

°F

Wertheim temperature yesterday

Maximum temperature yesterday: 40 °F (at 4:00 PM)
Minimum temperature yesterday: 33 °F (at 6:00 AM)
Average temperature yesterday: 37 °F

Past Weeks' High & Low Weather Summary

 TemperatureHumidityPressure
High53 °F (Nov 15, 1:00 PM)100% (Nov 11, 12:00 AM)30.35 "Hg (Nov 11, 12:00 AM)
Low33 °F (Nov 23, 8:00 AM)69% (Nov 21, 12:00 PM)29.47 "Hg (Nov 16, 4:00 AM)
Average44 °F94%29.93 "Hg
* Reported Nov 8 7:00 PM — Nov 23 7:00 PM, Wertheim, Weather by CustomWeather, © 2014

Note: Actual official high and low records may vary slightly from our data, if they occured in-between our weather recording intervals... More about our weather records

Advertising

Wertheim weather history for previous 24 hours

 ConditionsComfort  
Time TempWeatherWind HumidityBarometerVisibility
7:00 PM
Nov 23
40 °FPassing clouds.2 mph95%30.17 "Hg6 mi
6:00 PM42 °FPassing clouds.2 mph93%30.18 "Hg1 mi
5:00 PM44 °FPassing clouds.3 mph89%30.18 "Hg7 mi
4:00 PM47 °FScattered clouds.5 mph82%30.17 "Hg11 mi
3:00 PM49 °FPassing clouds.6 mph78%30.18 "Hg12 mi
2:00 PM48 °FPassing clouds.5 mph77%30.19 "Hg14 mi
1:00 PM46 °FPassing clouds.3 mph77%30.22 "Hg9 mi
12:00 PM45 °FSunny.3 mph81%30.24 "Hg7 mi
11:00 AM42 °FSunny.2 mph87%30.27 "Hg5 mi
10:00 AM38 °FFog.1 mph95%30.28 "Hg3 mi
9:00 AM35 °FFog.1 mph99%30.29 "Hg2 mi
8:00 AM33 °FFog.1 mph100%30.29 "Hg2 mi
7:00 AM33 °FFog.1 mph100%30.27 "Hg2 mi
6:00 AM33 °FFog.1 mph100%30.26 "Hg3 mi
5:00 AM33 °FClear.2 mph100%30.26 "Hg1 mi
4:00 AM34 °FClear.3 mph99%30.26 "Hg1 mi
3:00 AM35 °FFog.2 mph98%30.26 "Hg2 mi
2:00 AM36 °FFog.2 mph98%30.26 "Hg2 mi
1:00 AM38 °FFog.3 mph97%30.26 "Hg2 mi
12:00 AM39 °FFog.2 mph97%30.26 "Hg2 mi
11:00 PM
Nov 22
39 °FFog.2 mph97%30.26 "Hg3 mi
10:00 PM40 °FFog.2 mph97%30.25 "Hg1 mi
9:00 PM39 °FFog.2 mph98%30.24 "Hg2 mi
8:00 PM39 °FFog.2 mph99%30.24 "Hg2 mi
Weather by CustomWeather, © 2014

See weather overviewHow to use our weather pages